CZ-4 DEB, 26262

Orbit data source: Space-Track

CZ-4 DEB, 26262 is space debris in SSO originally from a launch on Thu, 14 Oct 1999 UTC launched from the Taiyaun Space Center, China (TSC). Debris objects in space refer to the collection of defunct objects orbiting the Earth. Examples of debris include non-operational satellites, rocket bodies, and fragments generated from explosions, collisions, or faulty payload assembly.

Loading next visibility...
Identifier
26262, 1999-057EY
Orbit
SSO
Country
Flag of CNCN / PRC
Related business
Manufacturer
Unknown
Mission
Spacecraft
Bus & Motor
Unknown
Mass
Unknown
Launch date (UTC)
1999-10-14 (26 years ago)
Launch vehicle
Unknown
Launch site
Taiyaun Space Center, China (TSC)
Object type
Payload
Rocket body
Debris
Shape & HBR
Unknown shape, 0.1 m
Radar Cross Section
Small (<0.1 m²)

Expand to show TLE details & history
Last TLE update: 4 hours ago

TLE from 4 hours ago
0 CZ-4 DEB
1 26262U 99057EY  26037.20749221  .00015837  00000-0  20453-2 0  9993
2 26262  98.3353 131.9600 0039999 203.3475 186.9690 14.80479583368414
Epoch: 2026-02-06T04:58Z
TLE epoch observation values (Epoch: 2026-02-06T04:58:47.326Z)
Latitude
29.96125°
Longitude
-83.90449°
Altitude
659.451 km
Speed
7.515 km/s
True Right ascension
08h 28m 33s
True Declination
29° 48' 38"
Sunlit
Object was in full shadow at epoch
Visualization orbit readout
Latitude
Unknown
Longitude
Unknown
Altitude
Unknown
Speed
Unknown
Apparent Right ascension
Unknown
Apparent Declination
Unknown
Sunlit
N/A
Visualization observer readout
Local Sidereal Time
10:44:43
Azimuth
Unknown
Elevation
Unknown
Doppler factor
Unknown
Orbital elements
Apogee altitude
652.882 km
Perigee altitude
596.86 km
Semi-major axis
7,003.008 km
Eccentricity
0.004
Inclination
98.3353°
RAAN
131.96°
Arg. of periapsis
203.3475°
True anomaly
186.91366°
Mean anomaly
186.969°
Eccentric anomaly
186.9413°
Mean motion
3.70353 °/min
Orbital period
97.2 mins
BSTAR
0.0020453
Loading maneuver chart data...
Computing Atmospheric mass density...
Loading historical data...
Loading historical data...
Loading historical data...
Loading historical data...
Loading historical data...
Loading historical data...
Loading historical data...

Documentation

Showing up to 5 results
|